Time,TemperatureF,DewpointF,PressureIn,WindDirection,WindDirectionDegrees,WindSpeedMPH,WindSpeedGustMPH,Humidity,HourlyPrecipIn,Conditions,Clouds,dailyrainin,SoftwareType,DateUTC
2013-02-24 00:04:00,40.6,19.3,29.53,North,-999,0.0,0.0,42,0.00,,,0.00,LWC V1.12 B30,2013-02-24 07:04:00,
2013-02-24 00:09:00,40.7,19.4,29.53,North,-999,0.0,0.0,42,0.00,,,0.00,LWC V1.12 B30,2013-02-24 07:09:00,
2013-02-24 00:14:00,40.7,19.4,29.53,North,-999,0.0,0.0,42,0.00,,,0.00,LWC V1.12 B30,2013-02-24 07:14:00,
2013-02-24 00:19:00,40.7,19.4,29.53,North,-999,0.0,0.0,42,0.00,,,0.00,LWC V1.12 B30,2013-02-24 07:19:00,
2013-02-24 00:24:00,40.8,19.5,29.53,North,-999,0.0,0.0,42,0.00,,,0.00,LWC V1.12 B30,2013-02-24 07:24:00,
2013-02-24 00:29:00,40.8,19.5,29.53,North,-999,0.0,0.0,42,0.00,,,0.00,LWC V1.12 B30,2013-02-24 07:29:00,
2013-02-24 00:34:00,40.7,20.0,29.53,North,-999,0.0,0.0,43,0.00,,,0.00,LWC V1.12 B30,2013-02-24 07:34:00,
2013-02-24 00:39:00,40.7,20.0,29.53,North,-999,0.0,0.0,43,0.00,,,0.00,LWC V1.12 B30,2013-02-24 07:39:00,
2013-02-24 00:44:00,40.7,20.0,29.53,North,-999,0.0,0.0,43,0.00,,,0.00,LWC V1.12 B30,2013-02-24 07:44:00,
2013-02-24 00:49:00,40.7,20.0,29.53,North,-999,0.0,0.0,43,0.00,,,0.00,LWC V1.12 B30,2013-02-24 07:49:00,
2013-02-24 00:54:00,40.6,19.9,29.53,North,-999,0.0,0.0,43,0.00,,,0.00,LWC V1.12 B30,2013-02-24 07:54:00,
2013-02-24 00:59:00,40.6,19.3,29.53,North,-999,0.0,0.0,42,0.00,,,0.00,LWC V1.12 B30,2013-02-24 07:59:00,
2013-02-24 01:04:00,40.5,19.8,29.53,North,-999,0.0,0.0,43,0.00,,,0.00,LWC V1.12 B30,2013-02-24 08:04:00,
2013-02-24 01:09:00,40.3,19.1,29.53,North,-999,0.0,0.0,42,0.00,,,0.00,LWC V1.12 B30,2013-02-24 08:09:00,
2013-02-24 01:14:00,40.2,19.5,29.53,North,-999,0.0,0.0,43,0.00,,,0.00,LWC V1.12 B30,2013-02-24 08:14:00,
2013-02-24 01:19:00,40.1,19.4,29.53,North,-999,0.0,0.0,43,0.00,,,0.00,LWC V1.12 B30,2013-02-24 08:19:00,
2013-02-24 01:24:00,40.2,19.5,29.53,North,-999,0.0,0.0,43,0.00,,,0.00,LWC V1.12 B30,2013-02-24 08:24:00,
2013-02-24 01:29:00,40.2,20.0,29.53,North,-999,0.0,0.0,44,0.00,,,0.00,LWC V1.12 B30,2013-02-24 08:29:00,
2013-02-24 01:34:00,40.3,20.1,29.53,North,-999,0.0,0.0,44,0.00,,,0.00,LWC V1.12 B30,2013-02-24 08:34:00,
2013-02-24 01:39:00,40.5,20.9,29.53,North,-999,0.0,0.0,45,0.00,,,0.00,LWC V1.12 B30,2013-02-24 08:39:00,
2013-02-24 01:44:00,40.6,20.9,29.53,North,-999,0.0,0.0,45,0.00,,,0.00,LWC V1.12 B30,2013-02-24 08:44:00,
2013-02-24 01:49:00,40.5,20.9,29.53,North,-999,0.0,0.0,45,0.00,,,0.00,LWC V1.12 B30,2013-02-24 08:49:00,
2013-02-24 01:54:00,40.5,21.4,29.53,North,-999,0.0,0.0,46,0.00,,,0.00,LWC V1.12 B30,2013-02-24 08:54:00,
2013-02-24 01:59:00,40.5,20.9,29.53,North,-999,0.0,0.0,45,0.00,,,0.00,LWC V1.12 B30,2013-02-24 08:59:00,
2013-02-24 02:04:00,40.4,21.8,29.53,North,-999,0.0,0.0,47,0.00,,,0.00,LWC V1.12 B30,2013-02-24 09:04:00,
2013-02-24 02:09:00,40.3,22.7,29.53,North,-999,0.0,0.0,49,0.00,,,0.00,LWC V1.12 B30,2013-02-24 09:09:00,
2013-02-24 02:14:00,40.1,23.0,29.53,North,-999,0.0,0.0,50,0.00,,,0.00,LWC V1.12 B30,2013-02-24 09:14:00,
2013-02-24 02:19:00,39.8,23.6,29.53,North,-999,0.0,0.0,52,0.00,,,0.00,LWC V1.12 B30,2013-02-24 09:19:00,
2013-02-24 02:24:00,39.6,23.9,29.53,North,-999,0.0,0.0,53,0.00,,,0.00,LWC V1.12 B30,2013-02-24 09:24:00,
2013-02-24 02:29:00,39.4,24.2,29.53,North,-999,0.0,0.0,54,0.00,,,0.00,LWC V1.12 B30,2013-02-24 09:29:00,
2013-02-24 02:34:00,39.2,24.0,29.53,North,-999,0.0,0.0,54,0.00,,,0.00,LWC V1.12 B30,2013-02-24 09:34:00,
2013-02-24 02:39:00,39.1,24.3,29.53,North,-999,0.0,0.0,55,0.00,,,0.00,LWC V1.12 B30,2013-02-24 09:39:00,
2013-02-24 02:44:00,38.9,23.7,29.53,North,-999,0.0,0.0,54,0.00,,,0.00,LWC V1.12 B30,2013-02-24 09:44:00,
2013-02-24 02:49:00,38.9,23.7,29.53,North,-999,0.0,0.0,54,0.00,,,0.00,LWC V1.12 B30,2013-02-24 09:49:00,
2013-02-24 02:54:00,38.8,23.2,29.53,North,-999,0.0,0.0,53,0.00,,,0.00,LWC V1.12 B30,2013-02-24 09:54:00,
2013-02-24 02:59:00,38.7,23.1,29.53,North,-999,0.0,0.0,53,0.00,,,0.00,LWC V1.12 B30,2013-02-24 09:59:00,
2013-02-24 03:04:00,38.6,22.5,29.53,North,-999,0.0,0.0,52,0.00,,,0.00,LWC V1.12 B30,2013-02-24 10:04:00,
2013-02-24 03:09:00,38.5,22.4,29.53,North,-999,0.0,0.0,52,0.00,,,0.00,LWC V1.12 B30,2013-02-24 10:09:00,
2013-02-24 03:14:00,38.5,22.4,29.53,North,-999,0.0,0.0,52,0.00,,,0.00,LWC V1.12 B30,2013-02-24 10:14:00,
2013-02-24 03:19:00,38.4,21.9,29.53,North,-999,0.0,0.0,51,0.00,,,0.00,LWC V1.12 B30,2013-02-24 10:19:00,
2013-02-24 03:24:00,38.4,21.9,29.53,North,-999,0.0,0.0,51,0.00,,,0.00,LWC V1.12 B30,2013-02-24 10:24:00,
2013-02-24 03:29:00,38.3,21.8,29.53,North,-999,0.0,0.0,51,0.00,,,0.00,LWC V1.12 B30,2013-02-24 10:29:00,
2013-02-24 03:34:00,38.3,21.8,29.53,North,-999,0.0,0.0,51,0.00,,,0.00,LWC V1.12 B30,2013-02-24 10:34:00,
2013-02-24 03:39:00,38.2,21.7,29.53,North,-999,0.0,0.0,51,0.00,,,0.00,LWC V1.12 B30,2013-02-24 10:39:00,
2013-02-24 03:44:00,38.1,21.6,29.53,North,-999,0.0,0.0,51,0.00,,,0.00,LWC V1.12 B30,2013-02-24 10:44:00,
2013-02-24 03:49:00,38.0,21.5,29.53,North,-999,0.0,0.0,51,0.00,,,0.00,LWC V1.12 B30,2013-02-24 10:49:00,
2013-02-24 03:54:00,37.9,21.9,29.53,North,-999,0.0,0.0,52,0.00,,,0.00,LWC V1.12 B30,2013-02-24 10:54:00,
2013-02-24 03:59:00,37.8,21.8,29.53,North,-999,0.0,0.0,52,0.00,,,0.00,LWC V1.12 B30,2013-02-24 10:59:00,
2013-02-24 04:04:00,37.6,21.6,29.53,North,-999,0.0,0.0,52,0.00,,,0.00,LWC V1.12 B30,2013-02-24 11:04:00,
2013-02-24 04:09:00,37.6,21.6,29.53,North,-999,0.0,0.0,52,0.00,,,0.00,LWC V1.12 B30,2013-02-24 11:09:00,
2013-02-24 04:14:00,37.5,21.9,29.53,North,-999,0.0,0.0,53,0.00,,,0.00,LWC V1.12 B30,2013-02-24 11:14:00,
2013-02-24 04:19:00,37.4,21.9,29.53,North,-999,0.0,0.0,53,0.00,,,0.00,LWC V1.12 B30,2013-02-24 11:19:00,
2013-02-24 04:24:00,37.3,21.8,29.53,North,-999,0.0,0.0,53,0.00,,,0.00,LWC V1.12 B30,2013-02-24 11:24:00,
2013-02-24 04:29:00,37.3,22.2,29.53,North,-999,0.0,0.0,54,0.00,,,0.00,LWC V1.12 B30,2013-02-24 11:29:00,
2013-02-24 04:34:00,37.2,21.7,29.53,North,-999,0.0,0.0,53,0.00,,,0.00,LWC V1.12 B30,2013-02-24 11:34:00,
2013-02-24 04:39:00,37.2,22.1,29.53,North,-999,0.0,0.0,54,0.00,,,0.00,LWC V1.12 B30,2013-02-24 11:39:00,
2013-02-24 04:44:00,37.2,21.7,29.53,North,-999,0.0,0.0,53,0.00,,,0.00,LWC V1.12 B30,2013-02-24 11:44:00,
2013-02-24 04:49:00,37.3,21.8,29.53,North,-999,0.0,0.0,53,0.00,,,0.00,LWC V1.12 B30,2013-02-24 11:49:00,
2013-02-24 04:54:00,37.3,21.8,29.53,North,-999,0.0,0.0,53,0.00,,,0.00,LWC V1.12 B30,2013-02-24 11:54:00,
2013-02-24 04:59:00,37.2,21.2,29.53,North,-999,0.0,0.0,52,0.00,,,0.00,LWC V1.12 B30,2013-02-24 11:59:00,
2013-02-24 05:04:00,37.2,20.8,29.53,North,-999,0.0,0.0,51,0.00,,,0.00,LWC V1.12 B30,2013-02-24 12:04:00,
2013-02-24 05:09:00,37.0,20.1,29.53,North,-999,0.0,0.0,50,0.00,,,0.00,LWC V1.12 B30,2013-02-24 12:09:00,
2013-02-24 05:14:00,36.9,20.0,29.53,North,-999,0.0,0.0,50,0.00,,,0.00,LWC V1.12 B30,2013-02-24 12:14:00,
2013-02-24 05:19:00,36.9,20.0,29.53,North,-999,0.0,0.0,50,0.00,,,0.00,LWC V1.12 B30,2013-02-24 12:19:00,
2013-02-24 05:24:00,36.9,19.5,29.53,North,-999,0.0,0.0,49,0.00,,,0.00,LWC V1.12 B30,2013-02-24 12:24:00,
2013-02-24 05:31:00,36.9,20.0,29.53,North,-999,0.0,0.0,50,0.00,,,0.00,LWC V1.12 B30,2013-02-24 12:31:00,
2013-02-24 05:36:00,36.9,20.0,29.53,North,-999,0.0,0.0,50,0.00,,,0.00,LWC V1.12 B30,2013-02-24 12:36:00,
2013-02-24 05:42:00,36.8,19.9,29.53,North,-999,0.0,0.0,50,0.00,,,0.00,LWC V1.12 B30,2013-02-24 12:42:00,
2013-02-24 05:47:00,36.6,19.7,29.53,North,-999,0.0,0.0,50,0.00,,,0.00,LWC V1.12 B30,2013-02-24 12:47:00,
2013-02-24 05:52:00,36.4,20.0,29.53,North,-999,0.0,0.0,51,0.00,,,0.00,LWC V1.12 B30,2013-02-24 12:52:00,
2013-02-24 05:57:00,36.3,19.9,29.53,North,-999,0.0,0.0,51,0.00,,,0.00,LWC V1.12 B30,2013-02-24 12:57:00,
2013-02-24 06:02:00,36.2,19.8,29.53,North,-999,0.0,0.0,51,0.00,,,0.00,LWC V1.12 B30,2013-02-24 13:02:00,
2013-02-24 06:07:00,36.1,20.2,29.53,North,-999,0.0,0.0,52,0.00,,,0.00,LWC V1.12 B30,2013-02-24 13:07:00,
2013-02-24 06:12:00,36.1,20.2,29.53,North,-999,0.0,0.0,52,0.00,,,0.00,LWC V1.12 B30,2013-02-24 13:12:00,
2013-02-24 06:17:00,36.2,20.7,29.53,North,-999,0.0,0.0,53,0.00,,,0.00,LWC V1.12 B30,2013-02-24 13:17:00,
2013-02-24 06:22:00,36.2,20.3,29.53,North,-999,0.0,0.0,52,0.00,,,0.00,LWC V1.12 B30,2013-02-24 13:22:00,
2013-02-24 06:27:00,36.2,20.3,29.53,North,-999,0.0,0.0,52,0.00,,,0.00,LWC V1.12 B30,2013-02-24 13:27:00,
2013-02-24 06:32:00,36.3,19.9,29.53,North,-999,0.0,0.0,51,0.00,,,0.00,LWC V1.12 B30,2013-02-24 13:32:00,
2013-02-24 06:37:00,36.3,19.9,29.53,North,-999,0.0,0.0,51,0.00,,,0.00,LWC V1.12 B30,2013-02-24 13:37:00,
2013-02-24 06:42:00,36.3,19.5,29.53,North,-999,0.0,0.0,50,0.00,,,0.00,LWC V1.12 B30,2013-02-24 13:42:00,
2013-02-24 06:47:00,36.3,19.0,29.53,North,-999,0.0,0.0,49,0.00,,,0.00,LWC V1.12 B30,2013-02-24 13:47:00,
2013-02-24 06:52:00,36.2,18.9,29.53,North,-999,0.0,0.0,49,0.00,,,0.00,LWC V1.12 B30,2013-02-24 13:52:00,
2013-02-24 06:57:00,36.1,19.3,29.53,North,-999,0.0,0.0,50,0.00,,,0.00,LWC V1.12 B30,2013-02-24 13:57:00,
2013-02-24 07:02:00,36.1,19.3,29.53,North,-999,0.0,0.0,50,0.00,,,0.00,LWC V1.12 B30,2013-02-24 14:02:00,
2013-02-24 07:07:00,36.2,19.4,29.53,North,-999,0.0,0.0,50,0.00,,,0.00,LWC V1.12 B30,2013-02-24 14:07:00,
2013-02-24 07:12:00,36.3,19.5,29.53,North,-999,0.0,0.0,50,0.00,,,0.00,LWC V1.12 B30,2013-02-24 14:12:00,
2013-02-24 07:17:00,36.4,19.1,29.53,North,-999,0.0,0.0,49,0.00,,,0.00,LWC V1.12 B30,2013-02-24 14:17:00,
2013-02-24 07:22:00,36.6,19.3,29.53,North,-999,0.0,0.0,49,0.00,,,0.00,LWC V1.12 B30,2013-02-24 14:22:00,
2013-02-24 07:27:00,36.7,19.4,29.53,North,-999,0.0,0.0,49,0.00,,,0.00,LWC V1.12 B30,2013-02-24 14:27:00,
2013-02-24 07:32:00,36.9,19.5,29.53,North,-999,0.0,0.0,49,0.00,,,0.00,LWC V1.12 B30,2013-02-24 14:32:00,
2013-02-24 07:37:00,37.1,19.7,29.53,North,-999,0.0,0.0,49,0.00,,,0.00,LWC V1.12 B30,2013-02-24 14:37:00,
2013-02-24 07:42:00,37.3,19.9,29.53,North,-999,0.0,0.0,49,0.00,,,0.00,LWC V1.12 B30,2013-02-24 14:42:00,
2013-02-24 07:47:00,37.4,19.5,29.53,North,-999,0.0,0.0,48,0.00,,,0.00,LWC V1.12 B30,2013-02-24 14:47:00,
2013-02-24 07:52:00,37.5,20.1,29.53,North,-999,0.0,0.0,49,0.00,,,0.00,LWC V1.12 B30,2013-02-24 14:52:00,
2013-02-24 07:57:00,37.7,19.8,29.53,North,-999,0.0,0.0,48,0.00,,,0.00,LWC V1.12 B30,2013-02-24 14:57:00,
2013-02-24 08:02:00,37.9,20.0,29.53,North,-999,0.0,0.0,48,0.00,,,0.00,LWC V1.12 B30,2013-02-24 15:02:00,
2013-02-24 08:07:00,38.0,19.6,29.53,North,-999,0.0,0.0,47,0.00,,,0.00,LWC V1.12 B30,2013-02-24 15:07:00,
2013-02-24 08:12:00,38.3,19.9,29.53,North,-999,0.0,0.0,47,0.00,,,0.00,LWC V1.12 B30,2013-02-24 15:12:00,
2013-02-24 08:17:00,38.4,19.4,29.53,North,-999,0.0,0.0,46,0.00,,,0.00,LWC V1.12 B30,2013-02-24 15:17:00,
2013-02-24 08:22:00,38.5,19.5,29.53,North,-999,0.0,0.0,46,0.00,,,0.00,LWC V1.12 B30,2013-02-24 15:22:00,
2013-02-24 08:27:00,38.6,19.6,29.53,North,-999,0.0,0.0,46,0.00,,,0.00,LWC V1.12 B30,2013-02-24 15:27:00,
2013-02-24 08:32:00,38.6,20.1,29.53,North,-999,0.0,0.0,47,0.00,,,0.00,LWC V1.12 B30,2013-02-24 15:32:00,
2013-02-24 08:37:00,38.4,21.4,29.53,North,-999,0.0,0.0,50,0.00,,,0.00,LWC V1.12 B30,2013-02-24 15:37:00,
2013-02-24 08:42:00,38.5,22.4,29.53,North,-999,0.0,0.0,52,0.00,,,0.00,LWC V1.12 B30,2013-02-24 15:42:00,
2013-02-24 08:47:00,38.5,22.0,29.53,North,-999,0.0,0.0,51,0.00,,,0.00,LWC V1.12 B30,2013-02-24 15:47:00,
2013-02-24 08:52:00,38.7,22.1,29.53,North,-999,0.0,0.0,51,0.00,,,0.00,LWC V1.12 B30,2013-02-24 15:52:00,
2013-02-24 08:57:00,39.0,22.0,29.53,North,-999,0.0,0.0,50,0.00,,,0.00,LWC V1.12 B30,2013-02-24 15:57:00,
2013-02-24 09:02:00,39.3,21.8,29.53,North,-999,0.0,0.0,49,0.00,,,0.00,LWC V1.12 B30,2013-02-24 16:02:00,
2013-02-24 09:07:00,39.7,22.1,29.53,North,-999,0.0,0.0,49,0.00,,,0.00,LWC V1.12 B30,2013-02-24 16:07:00,
2013-02-24 09:12:00,40.0,21.4,29.53,North,-999,0.0,0.0,47,0.00,,,0.00,LWC V1.12 B30,2013-02-24 16:12:00,
2013-02-24 09:17:00,40.3,20.7,29.53,North,-999,0.0,0.0,45,0.00,,,0.00,LWC V1.12 B30,2013-02-24 16:17:00,
2013-02-24 09:22:00,40.7,20.5,29.53,North,-999,0.0,0.0,44,0.00,,,0.00,LWC V1.12 B30,2013-02-24 16:22:00,
2013-02-24 09:27:00,41.1,20.3,29.53,North,-999,0.0,0.0,43,0.00,,,0.00,LWC V1.12 B30,2013-02-24 16:27:00,
2013-02-24 09:32:00,41.4,20.6,29.53,North,-999,0.0,0.0,43,0.00,,,0.00,LWC V1.12 B30,2013-02-24 16:32:00,
2013-02-24 09:37:00,41.7,20.3,29.53,North,-999,0.0,0.0,42,0.00,,,0.00,LWC V1.12 B30,2013-02-24 16:37:00,
2013-02-24 09:42:00,41.9,20.5,29.53,North,-999,0.0,0.0,42,0.00,,,0.00,LWC V1.12 B30,2013-02-24 16:42:00,
2013-02-24 09:47:00,42.1,20.7,29.53,North,-999,0.0,0.0,42,0.00,,,0.00,LWC V1.12 B30,2013-02-24 16:47:00,
2013-02-24 09:52:00,42.0,20.6,29.53,North,-999,0.0,0.0,42,0.00,,,0.00,LWC V1.12 B30,2013-02-24 16:52:00,
2013-02-24 09:57:00,41.9,20.5,29.53,North,-999,0.0,0.0,42,0.00,,,0.00,LWC V1.12 B30,2013-02-24 16:57:00,
2013-02-24 10:02:00,42.1,19.5,29.53,North,-999,0.0,0.0,40,0.00,,,0.00,LWC V1.12 B30,2013-02-24 17:02:00,
2013-02-24 10:07:00,42.4,18.6,29.53,North,-999,0.0,0.0,38,0.00,,,0.00,LWC V1.12 B30,2013-02-24 17:07:00,
2013-02-24 10:12:00,42.7,18.3,29.53,North,-999,0.0,0.0,37,0.00,,,0.00,LWC V1.12 B30,2013-02-24 17:12:00,
2013-02-24 10:17:00,42.8,18.4,29.53,North,-999,0.0,0.0,37,0.00,,,0.00,LWC V1.12 B30,2013-02-24 17:17:00,
2013-02-24 10:22:00,42.8,16.4,29.53,North,-999,0.0,0.0,34,0.00,,,0.00,LWC V1.12 B30,2013-02-24 17:22:00,
2013-02-24 10:27:00,42.5,16.1,29.53,North,-999,0.0,0.0,34,0.00,,,0.00,LWC V1.12 B30,2013-02-24 17:27:00,
2013-02-24 10:32:00,42.5,16.1,29.53,North,-999,0.0,0.0,34,0.00,,,0.00,LWC V1.12 B30,2013-02-24 17:32:00,
2013-02-24 10:37:00,42.6,16.2,29.53,North,-999,0.0,0.0,34,0.00,,,0.00,LWC V1.12 B30,2013-02-24 17:37:00,
2013-02-24 10:42:00,42.6,15.5,29.53,North,-999,0.0,0.0,33,0.00,,,0.00,LWC V1.12 B30,2013-02-24 17:42:00,
2013-02-24 10:47:00,42.7,14.9,29.53,North,-999,0.0,0.0,32,0.00,,,0.00,LWC V1.12 B30,2013-02-24 17:47:00,
2013-02-24 10:52:00,42.9,14.4,29.53,North,-999,0.0,0.0,31,0.00,,,0.00,LWC V1.12 B30,2013-02-24 17:52:00,
2013-02-24 10:57:00,43.0,15.2,29.53,North,-999,0.0,0.0,32,0.00,,,0.00,LWC V1.12 B30,2013-02-24 17:57:00,
2013-02-24 11:02:00,43.1,14.5,29.53,North,-999,0.0,0.0,31,0.00,,,0.00,LWC V1.12 B30,2013-02-24 18:02:00,
2013-02-24 11:07:00,43.4,14.8,29.53,North,-999,0.0,0.0,31,0.00,,,0.00,LWC V1.12 B30,2013-02-24 18:07:00,
2013-02-24 11:12:00,43.7,15.8,29.53,North,-999,0.0,0.0,32,0.00,,,0.00,LWC V1.12 B30,2013-02-24 18:12:00,
2013-02-24 11:17:00,43.7,16.5,29.53,North,-999,0.0,0.0,33,0.00,,,0.00,LWC V1.12 B30,2013-02-24 18:17:00,
2013-02-24 11:22:00,43.7,15.8,29.53,North,-999,0.0,0.0,32,0.00,,,0.00,LWC V1.12 B30,2013-02-24 18:22:00,
2013-02-24 11:27:00,43.9,16.7,29.53,North,-999,0.0,0.0,33,0.00,,,0.00,LWC V1.12 B30,2013-02-24 18:27:00,
2013-02-24 11:32:00,44.4,17.1,29.53,North,-999,0.0,0.0,33,0.00,,,0.00,LWC V1.12 B30,2013-02-24 18:32:00,
2013-02-24 11:37:00,44.8,17.5,29.53,North,-999,0.0,0.0,33,0.00,,,0.00,LWC V1.12 B30,2013-02-24 18:37:00,
2013-02-24 11:42:00,45.1,17.7,29.53,North,-999,0.0,0.0,33,0.00,,,0.00,LWC V1.12 B30,2013-02-24 18:42:00,
2013-02-24 11:47:00,44.9,17.6,29.53,North,-999,0.0,0.0,33,0.00,,,0.00,LWC V1.12 B30,2013-02-24 18:47:00,
2013-02-24 11:52:00,45.1,17.7,29.53,North,-999,0.0,0.0,33,0.00,,,0.00,LWC V1.12 B30,2013-02-24 18:52:00,
2013-02-24 11:57:00,45.3,17.2,29.53,North,-999,0.0,0.0,32,0.00,,,0.00,LWC V1.12 B30,2013-02-24 18:57:00,
2013-02-24 12:02:00,45.4,17.3,29.53,North,-999,0.0,0.0,32,0.00,,,0.00,LWC V1.12 B30,2013-02-24 19:02:00,
2013-02-24 12:07:00,45.4,16.6,29.53,North,-999,0.0,0.0,31,0.00,,,0.00,LWC V1.12 B30,2013-02-24 19:07:00,
2013-02-24 12:12:00,45.7,16.1,29.53,North,-999,0.0,0.0,30,0.00,,,0.00,LWC V1.12 B30,2013-02-24 19:12:00,
2013-02-24 12:17:00,45.8,16.9,29.53,North,-999,0.0,0.0,31,0.00,,,0.00,LWC V1.12 B30,2013-02-24 19:17:00,
2013-02-24 12:22:00,45.9,17.0,29.53,North,-999,0.0,0.0,31,0.00,,,0.00,LWC V1.12 B30,2013-02-24 19:22:00,
2013-02-24 12:27:00,46.1,17.2,29.53,North,-999,0.0,0.0,31,0.00,,,0.00,LWC V1.12 B30,2013-02-24 19:27:00,
2013-02-24 12:32:00,46.1,17.2,29.53,North,-999,0.0,0.0,31,0.00,,,0.00,LWC V1.12 B30,2013-02-24 19:32:00,
2013-02-24 12:37:00,46.1,16.4,29.53,North,-999,0.0,0.0,30,0.00,,,0.00,LWC V1.12 B30,2013-02-24 19:37:00,
2013-02-24 12:42:00,46.2,15.7,29.53,North,-999,0.0,0.0,29,0.00,,,0.00,LWC V1.12 B30,2013-02-24 19:42:00,
2013-02-24 12:47:00,46.2,16.5,29.53,North,-999,0.0,0.0,30,0.00,,,0.00,LWC V1.12 B30,2013-02-24 19:47:00,
2013-02-24 12:52:00,46.3,15.0,29.53,North,-999,0.0,0.0,28,0.00,,,0.00,LWC V1.12 B30,2013-02-24 19:52:00,
2013-02-24 12:57:00,46.4,15.1,29.53,North,-999,0.0,0.0,28,0.00,,,0.00,LWC V1.12 B30,2013-02-24 19:57:00,
2013-02-24 13:02:00,46.5,15.2,29.53,North,-999,0.0,0.0,28,0.00,,,0.00,LWC V1.12 B30,2013-02-24 20:02:00,
2013-02-24 13:07:00,46.6,14.4,29.53,North,-999,0.0,0.0,27,0.00,,,0.00,LWC V1.12 B30,2013-02-24 20:07:00,
2013-02-24 13:12:00,46.6,14.4,29.53,North,-999,0.0,0.0,27,0.00,,,0.00,LWC V1.12 B30,2013-02-24 20:12:00,
2013-02-24 13:17:00,46.7,14.5,29.53,North,-999,0.0,0.0,27,0.00,,,0.00,LWC V1.12 B30,2013-02-24 20:17:00,
2013-02-24 13:22:00,46.6,14.4,29.53,North,-999,0.0,0.0,27,0.00,,,0.00,LWC V1.12 B30,2013-02-24 20:22:00,
2013-02-24 13:27:00,46.5,14.3,29.53,North,-999,0.0,0.0,27,0.00,,,0.00,LWC V1.12 B30,2013-02-24 20:27:00,
2013-02-24 13:32:00,46.3,14.2,29.53,North,-999,0.0,0.0,27,0.00,,,0.00,LWC V1.12 B30,2013-02-24 20:32:00,
2013-02-24 13:37:00,46.3,14.2,29.53,North,-999,0.0,0.0,27,0.00,,,0.00,LWC V1.12 B30,2013-02-24 20:37:00,
2013-02-24 13:42:00,46.4,14.3,29.53,North,-999,0.0,0.0,27,0.00,,,0.00,LWC V1.12 B30,2013-02-24 20:42:00,
2013-02-24 13:47:00,46.4,13.4,29.53,North,-999,0.0,0.0,26,0.00,,,0.00,LWC V1.12 B30,2013-02-24 20:47:00,
2013-02-24 13:52:00,46.6,12.7,29.53,North,-999,0.0,0.0,25,0.00,,,0.00,LWC V1.12 B30,2013-02-24 20:52:00,
2013-02-24 13:57:00,46.8,12.9,29.53,North,-999,0.0,0.0,25,0.00,,,0.00,LWC V1.12 B30,2013-02-24 20:57:00,
2013-02-24 14:02:00,47.0,13.0,29.53,North,-999,0.0,0.0,25,0.00,,,0.00,LWC V1.12 B30,2013-02-24 21:02:00,
2013-02-24 14:07:00,47.1,13.1,29.53,North,-999,0.0,0.0,25,0.00,,,0.00,LWC V1.12 B30,2013-02-24 21:07:00,
2013-02-24 14:12:00,47.1,12.2,29.53,North,-999,0.0,0.0,24,0.00,,,0.00,LWC V1.12 B30,2013-02-24 21:12:00,
2013-02-24 14:17:00,46.9,12.9,29.53,North,-999,0.0,0.0,25,0.00,,,0.00,LWC V1.12 B30,2013-02-24 21:17:00,
2013-02-24 14:22:00,46.8,12.9,29.53,North,-999,0.0,0.0,25,0.00,,,0.00,LWC V1.12 B30,2013-02-24 21:22:00,
2013-02-24 14:27:00,46.4,12.5,29.53,North,-999,0.0,0.0,25,0.00,,,0.00,LWC V1.12 B30,2013-02-24 21:27:00,
2013-02-24 14:32:00,46.3,13.3,29.53,North,-999,0.0,0.0,26,0.00,,,0.00,LWC V1.12 B30,2013-02-24 21:32:00,
2013-02-24 14:37:00,46.3,13.3,29.53,North,-999,0.0,0.0,26,0.00,,,0.00,LWC V1.12 B30,2013-02-24 21:37:00,
2013-02-24 14:42:00,46.2,13.2,29.53,North,-999,0.0,0.0,26,0.00,,,0.00,LWC V1.12 B30,2013-02-24 21:42:00,
2013-02-24 14:47:00,46.0,13.1,29.53,North,-999,0.0,0.0,26,0.00,,,0.00,LWC V1.12 B30,2013-02-24 21:47:00,
2013-02-24 14:52:00,45.8,12.9,29.53,North,-999,0.0,0.0,26,0.00,,,0.00,LWC V1.12 B30,2013-02-24 21:52:00,
2013-02-24 14:57:00,45.6,12.7,29.53,North,-999,0.0,0.0,26,0.00,,,0.00,LWC V1.12 B30,2013-02-24 21:57:00,
2013-02-24 15:02:00,45.7,12.8,29.53,North,-999,0.0,0.0,26,0.00,,,0.00,LWC V1.12 B30,2013-02-24 22:02:00,
2013-02-24 15:07:00,45.7,12.8,29.53,North,-999,0.0,0.0,26,0.00,,,0.00,LWC V1.12 B30,2013-02-24 22:07:00,
2013-02-24 15:12:00,45.8,12.9,29.53,North,-999,0.0,0.0,26,0.00,,,0.00,LWC V1.12 B30,2013-02-24 22:12:00,
2013-02-24 15:17:00,45.9,13.0,29.53,North,-999,0.0,0.0,26,0.00,,,0.00,LWC V1.12 B30,2013-02-24 22:17:00,
2013-02-24 15:22:00,45.9,13.0,29.53,North,-999,0.0,0.0,26,0.00,,,0.00,LWC V1.12 B30,2013-02-24 22:22:00,
2013-02-24 15:27:00,46.0,12.2,29.53,North,-999,0.0,0.0,25,0.00,,,0.00,LWC V1.12 B30,2013-02-24 22:27:00,
2013-02-24 15:32:00,45.9,11.2,29.53,North,-999,0.0,0.0,24,0.00,,,0.00,LWC V1.12 B30,2013-02-24 22:32:00,
2013-02-24 15:37:00,45.9,12.1,29.53,North,-999,0.0,0.0,25,0.00,,,0.00,LWC V1.12 B30,2013-02-24 22:37:00,
2013-02-24 15:42:00,45.6,10.9,29.53,North,-999,0.0,0.0,24,0.00,,,0.00,LWC V1.12 B30,2013-02-24 22:42:00,
2013-02-24 15:47:00,45.3,10.7,29.53,North,-999,0.0,0.0,24,0.00,,,0.00,LWC V1.12 B30,2013-02-24 22:47:00,
2013-02-24 15:52:00,45.0,9.5,29.53,North,-999,0.0,0.0,23,0.00,,,0.00,LWC V1.12 B30,2013-02-24 22:52:00,
2013-02-24 15:57:00,44.7,9.2,29.53,North,-999,0.0,0.0,23,0.00,,,0.00,LWC V1.12 B30,2013-02-24 22:57:00,
2013-02-24 16:02:00,44.6,9.1,29.53,North,-999,0.0,0.0,23,0.00,,,0.00,LWC V1.12 B30,2013-02-24 23:02:00,
2013-02-24 16:07:00,44.3,8.9,29.53,North,-999,0.0,0.0,23,0.00,,,0.00,LWC V1.12 B30,2013-02-24 23:07:00,
2013-02-24 16:12:00,44.1,9.6,29.53,North,-999,0.0,0.0,24,0.00,,,0.00,LWC V1.12 B30,2013-02-24 23:12:00,
2013-02-24 16:17:00,43.9,9.5,29.53,North,-999,0.0,0.0,24,0.00,,,0.00,LWC V1.12 B30,2013-02-24 23:17:00,
2013-02-24 16:22:00,43.6,9.2,29.53,North,-999,0.0,0.0,24,0.00,,,0.00,LWC V1.12 B30,2013-02-24 23:22:00,
2013-02-24 16:27:00,43.4,9.0,29.53,North,-999,0.0,0.0,24,0.00,,,0.00,LWC V1.12 B30,2013-02-24 23:27:00,
2013-02-24 16:32:00,43.6,9.2,29.53,North,-999,0.0,0.0,24,0.00,,,0.00,LWC V1.12 B30,2013-02-24 23:32:00,
2013-02-24 16:37:00,43.5,10.0,29.53,North,-999,0.0,0.0,25,0.00,,,0.00,LWC V1.12 B30,2013-02-24 23:37:00,
2013-02-24 16:42:00,43.2,9.8,29.53,North,-999,0.0,0.0,25,0.00,,,0.00,LWC V1.12 B30,2013-02-24 23:42:00,
2013-02-24 16:47:00,42.9,9.5,29.53,North,-999,0.0,0.0,25,0.00,,,0.00,LWC V1.12 B30,2013-02-24 23:47:00,
2013-02-24 16:52:00,42.8,9.4,29.53,North,-999,0.0,0.0,25,0.00,,,0.00,LWC V1.12 B30,2013-02-24 23:52:00,
2013-02-24 16:57:00,42.7,9.4,29.53,North,-999,0.0,0.0,25,0.00,,,0.00,LWC V1.12 B30,2013-02-24 23:57:00,
2013-02-24 17:02:00,42.4,8.2,29.53,North,-999,0.0,0.0,24,0.00,,,0.00,LWC V1.12 B30,2013-02-25 00:02:00,
2013-02-24 17:07:00,42.2,8.0,29.53,North,-999,0.0,0.0,24,0.00,,,0.00,LWC V1.12 B30,2013-02-25 00:07:00,
2013-02-24 17:12:00,42.1,7.9,29.53,North,-999,0.0,0.0,24,0.00,,,0.00,LWC V1.12 B30,2013-02-25 00:12:00,
2013-02-24 17:17:00,42.1,7.9,29.53,North,-999,0.0,0.0,24,0.00,,,0.00,LWC V1.12 B30,2013-02-25 00:17:00,
2013-02-24 17:22:00,42.1,7.9,29.53,North,-999,0.0,0.0,24,0.00,,,0.00,LWC V1.12 B30,2013-02-25 00:22:00,
2013-02-24 17:27:00,41.9,7.8,29.53,North,-999,0.0,0.0,24,0.00,,,0.00,LWC V1.12 B30,2013-02-25 00:27:00,
2013-02-24 17:32:00,41.6,7.5,29.53,North,-999,0.0,0.0,24,0.00,,,0.00,LWC V1.12 B30,2013-02-25 00:32:00,
2013-02-24 17:37:00,41.4,7.3,29.53,North,-999,0.0,0.0,24,0.00,,,0.00,LWC V1.12 B30,2013-02-25 00:37:00,
2013-02-24 17:42:00,41.3,8.2,29.53,North,-999,0.0,0.0,25,0.00,,,0.00,LWC V1.12 B30,2013-02-25 00:42:00,
2013-02-24 17:47:00,41.3,8.2,29.53,North,-999,0.0,0.0,25,0.00,,,0.00,LWC V1.12 B30,2013-02-25 00:47:00,
2013-02-24 17:52:00,41.0,7.0,29.53,North,-999,0.0,0.0,24,0.00,,,0.00,LWC V1.12 B30,2013-02-25 00:52:00,
2013-02-24 17:57:00,40.7,7.7,29.53,North,-999,0.0,0.0,25,0.00,,,0.00,LWC V1.12 B30,2013-02-25 00:57:00,
2013-02-24 18:02:00,40.7,6.8,29.53,North,-999,0.0,0.0,24,0.00,,,0.00,LWC V1.12 B30,2013-02-25 01:02:00,
2013-02-24 18:07:00,40.6,7.6,29.53,North,-999,0.0,0.0,25,0.00,,,0.00,LWC V1.12 B30,2013-02-25 01:07:00,
2013-02-24 18:12:00,40.5,9.2,29.53,North,-999,0.0,0.0,27,0.00,,,0.00,LWC V1.12 B30,2013-02-25 01:12:00,
2013-02-24 18:17:00,40.1,9.6,29.53,North,-999,0.0,0.0,28,0.00,,,0.00,LWC V1.12 B30,2013-02-25 01:17:00,
2013-02-24 18:22:00,40.0,10.3,29.53,North,-999,0.0,0.0,29,0.00,,,0.00,LWC V1.12 B30,2013-02-25 01:22:00,
2013-02-24 18:27:00,40.0,11.1,29.53,North,-999,0.0,0.0,30,0.00,,,0.00,LWC V1.12 B30,2013-02-25 01:27:00,
2013-02-24 18:32:00,39.9,12.5,29.53,North,-999,0.0,0.0,32,0.00,,,0.00,LWC V1.12 B30,2013-02-25 01:32:00,
2013-02-24 18:37:00,39.8,10.9,29.53,North,-999,0.0,0.0,30,0.00,,,0.00,LWC V1.12 B30,2013-02-25 01:37:00,
2013-02-24 18:42:00,39.9,9.5,29.53,North,-999,0.0,0.0,28,0.00,,,0.00,LWC V1.12 B30,2013-02-25 01:42:00,
2013-02-24 18:47:00,39.7,8.5,29.53,North,-999,0.0,0.0,27,0.00,,,0.00,LWC V1.12 B30,2013-02-25 01:47:00,
2013-02-24 18:52:00,39.7,8.5,29.53,North,-999,0.0,0.0,27,0.00,,,0.00,LWC V1.12 B30,2013-02-25 01:52:00,
2013-02-24 18:57:00,39.5,7.5,29.53,North,-999,0.0,0.0,26,0.00,,,0.00,LWC V1.12 B30,2013-02-25 01:57:00,
2013-02-24 19:02:00,39.5,9.9,29.53,North,-999,0.0,0.0,29,0.00,,,0.00,LWC V1.12 B30,2013-02-25 02:02:00,
2013-02-24 19:07:00,39.3,8.1,29.53,North,-999,0.0,0.0,27,0.00,,,0.00,LWC V1.12 B30,2013-02-25 02:07:00,
2013-02-24 19:12:00,39.3,8.1,29.53,North,-999,0.0,0.0,27,0.00,,,0.00,LWC V1.12 B30,2013-02-25 02:12:00,
2013-02-24 19:17:00,39.3,8.1,29.53,North,-999,0.0,0.0,27,0.00,,,0.00,LWC V1.12 B30,2013-02-25 02:17:00,
2013-02-24 19:22:00,39.3,7.3,29.53,North,-999,0.0,0.0,26,0.00,,,0.00,LWC V1.12 B30,2013-02-25 02:22:00,
2013-02-24 19:27:00,39.2,7.2,29.53,North,-999,0.0,0.0,26,0.00,,,0.00,LWC V1.12 B30,2013-02-25 02:27:00,
2013-02-24 19:32:00,39.1,9.6,29.53,North,-999,0.0,0.0,29,0.00,,,0.00,LWC V1.12 B30,2013-02-25 02:32:00,
2013-02-24 19:38:00,39.0,9.5,29.53,North,-999,0.0,0.0,29,0.00,,,0.00,LWC V1.12 B30,2013-02-25 02:38:00,
2013-02-24 19:43:00,38.8,14.8,29.53,North,-999,0.0,0.0,37,0.00,,,0.00,LWC V1.12 B30,2013-02-25 02:43:00,
2013-02-24 19:48:00,38.6,18.6,29.53,North,-999,0.0,0.0,44,0.00,,,0.00,LWC V1.12 B30,2013-02-25 02:48:00,
2013-02-24 19:53:00,38.2,18.2,29.53,North,-999,0.0,0.0,44,0.00,,,0.00,LWC V1.12 B30,2013-02-25 02:53:00,
2013-02-24 19:58:00,38.0,18.0,29.53,North,-999,0.0,0.0,44,0.00,,,0.00,LWC V1.12 B30,2013-02-25 02:58:00,
2013-02-24 20:03:00,38.0,19.1,29.53,North,-999,0.0,0.0,46,0.00,,,0.00,LWC V1.12 B30,2013-02-25 03:03:00,
2013-02-24 20:08:00,38.1,20.2,29.53,North,-999,0.0,0.0,48,0.00,,,0.00,LWC V1.12 B30,2013-02-25 03:08:00,
2013-02-24 20:13:00,37.9,20.9,29.53,North,-999,0.0,0.0,50,0.00,,,0.00,LWC V1.12 B30,2013-02-25 03:13:00,
2013-02-24 20:18:00,37.6,20.7,29.53,North,-999,0.0,0.0,50,0.00,,,0.00,LWC V1.12 B30,2013-02-25 03:18:00,
2013-02-24 20:23:00,37.3,19.9,29.53,North,-999,0.0,0.0,49,0.00,,,0.00,LWC V1.12 B30,2013-02-25 03:23:00,
2013-02-24 20:28:00,37.2,20.8,29.53,North,-999,0.0,0.0,51,0.00,,,0.00,LWC V1.12 B30,2013-02-25 03:28:00,
2013-02-24 20:33:00,37.1,20.7,29.53,North,-999,0.0,0.0,51,0.00,,,0.00,LWC V1.12 B30,2013-02-25 03:33:00,
2013-02-24 20:38:00,37.0,20.1,29.53,North,-999,0.0,0.0,50,0.00,,,0.00,LWC V1.12 B30,2013-02-25 03:38:00,
2013-02-24 20:43:00,37.1,19.2,29.53,North,-999,0.0,0.0,48,0.00,,,0.00,LWC V1.12 B30,2013-02-25 03:43:00,
2013-02-24 20:48:00,37.1,19.2,29.53,North,-999,0.0,0.0,48,0.00,,,0.00,LWC V1.12 B30,2013-02-25 03:48:00,
2013-02-24 20:53:00,37.1,18.8,29.53,North,-999,0.0,0.0,47,0.00,,,0.00,LWC V1.12 B30,2013-02-25 03:53:00,
2013-02-24 20:58:00,37.2,17.8,29.53,North,-999,0.0,0.0,45,0.00,,,0.00,LWC V1.12 B30,2013-02-25 03:58:00,
2013-02-24 21:03:00,37.2,17.8,29.53,North,-999,0.0,0.0,45,0.00,,,0.00,LWC V1.12 B30,2013-02-25 04:03:00,
2013-02-24 21:08:00,37.3,17.9,29.53,North,-999,0.0,0.0,45,0.00,,,0.00,LWC V1.12 B30,2013-02-25 04:08:00,
2013-02-24 21:13:00,37.3,16.9,29.53,North,-999,0.0,0.0,43,0.00,,,0.00,LWC V1.12 B30,2013-02-25 04:13:00,
2013-02-24 21:18:00,37.5,17.1,29.53,North,-999,0.0,0.0,43,0.00,,,0.00,LWC V1.12 B30,2013-02-25 04:18:00,
2013-02-24 21:23:00,37.5,17.1,29.53,North,-999,0.0,0.0,43,0.00,,,0.00,LWC V1.12 B30,2013-02-25 04:23:00,
2013-02-24 21:28:00,37.4,16.4,29.53,North,-999,0.0,0.0,42,0.00,,,0.00,LWC V1.12 B30,2013-02-25 04:28:00,
2013-02-24 21:33:00,37.1,18.8,29.53,North,-999,0.0,0.0,47,0.00,,,0.00,LWC V1.12 B30,2013-02-25 04:33:00,
2013-02-24 21:38:00,36.8,19.0,29.53,North,-999,0.0,0.0,48,0.00,,,0.00,LWC V1.12 B30,2013-02-25 04:38:00,
2013-02-24 21:43:00,36.9,18.1,29.53,North,-999,0.0,0.0,46,0.00,,,0.00,LWC V1.12 B30,2013-02-25 04:43:00,
2013-02-24 21:48:00,37.1,18.3,29.53,North,-999,0.0,0.0,46,0.00,,,0.00,LWC V1.12 B30,2013-02-25 04:48:00,
2013-02-24 21:53:00,37.3,19.4,29.53,North,-999,0.0,0.0,48,0.00,,,0.00,LWC V1.12 B30,2013-02-25 04:53:00,
2013-02-24 21:58:00,37.3,20.9,29.53,North,-999,0.0,0.0,51,0.00,,,0.00,LWC V1.12 B30,2013-02-25 04:58:00,
2013-02-24 22:00:00,37.2,21.7,29.53,North,-999,0.0,0.0,53,0.00,,,0.00,LWC V1.12 B30,2013-02-25 05:00:00,
2013-02-24 22:01:00,37.2,22.1,29.53,North,-999,0.0,0.0,54,0.00,,,0.00,LWC V1.12 B30,2013-02-25 05:01:00,
2013-02-24 22:05:00,37.0,23.2,29.53,North,-999,0.0,0.0,57,0.00,,,0.00,LWC V1.12 B30,2013-02-25 05:05:00,
2013-02-24 22:10:00,37.0,24.0,29.53,North,-999,0.0,0.0,59,0.00,,,0.00,LWC V1.12 B30,2013-02-25 05:10:00,
2013-02-24 22:15:00,36.8,24.6,29.53,North,-999,0.0,0.0,61,0.00,,,0.00,LWC V1.12 B30,2013-02-25 05:15:00,
2013-02-24 22:20:00,36.7,25.3,29.53,North,-999,0.0,0.0,63,0.00,,,0.00,LWC V1.12 B30,2013-02-25 05:20:00,
2013-02-24 22:25:00,36.8,25.4,29.53,North,-999,0.0,0.0,63,0.00,,,0.00,LWC V1.12 B30,2013-02-25 05:25:00,
2013-02-24 22:30:00,36.7,26.1,29.53,North,-999,0.0,0.0,65,0.00,,,0.00,LWC V1.12 B30,2013-02-25 05:30:00,
2013-02-24 22:35:00,36.6,26.0,29.53,North,-999,0.0,0.0,65,0.00,,,0.00,LWC V1.12 B30,2013-02-25 05:35:00,
2013-02-24 22:40:00,36.5,26.2,29.53,North,-999,0.0,0.0,66,0.00,,,0.00,LWC V1.12 B30,2013-02-25 05:40:00,
2013-02-24 22:45:00,36.5,26.2,29.53,North,-999,0.0,0.0,66,0.00,,,0.00,LWC V1.12 B30,2013-02-25 05:45:00,
2013-02-24 22:50:00,36.6,26.7,29.53,North,-999,0.0,0.0,67,0.00,,,0.00,LWC V1.12 B30,2013-02-25 05:50:00,
2013-02-24 22:55:00,36.6,26.3,29.53,North,-999,0.0,0.0,66,0.00,,,0.00,LWC V1.12 B30,2013-02-25 05:55:00,
2013-02-24 23:00:00,36.8,26.9,29.53,North,-999,0.0,0.0,67,0.00,,,0.00,LWC V1.12 B30,2013-02-25 06:00:00,
2013-02-24 23:05:00,36.7,26.4,29.53,North,-999,0.0,0.0,66,0.00,,,0.00,LWC V1.12 B30,2013-02-25 06:05:00,
2013-02-24 23:10:00,36.8,26.9,29.53,North,-999,0.0,0.0,67,0.00,,,0.00,LWC V1.12 B30,2013-02-25 06:10:00,
2013-02-24 23:15:00,36.8,26.9,29.53,North,-999,0.0,0.0,67,0.00,,,0.00,LWC V1.12 B30,2013-02-25 06:15:00,
2013-02-24 23:20:00,36.7,26.1,29.53,North,-999,0.0,0.0,65,0.00,,,0.00,LWC V1.12 B30,2013-02-25 06:20:00,
2013-02-24 23:25:00,36.6,26.3,29.53,North,-999,0.0,0.0,66,0.00,,,0.00,LWC V1.12 B30,2013-02-25 06:25:00,
2013-02-24 23:30:00,36.6,26.3,29.53,North,-999,0.0,0.0,66,0.00,,,0.00,LWC V1.12 B30,2013-02-25 06:30:00,
2013-02-24 23:35:00,36.6,26.3,29.53,North,-999,0.0,0.0,66,0.00,,,0.00,LWC V1.12 B30,2013-02-25 06:35:00,
2013-02-24 23:40:00,36.6,26.3,29.53,North,-999,0.0,0.0,66,0.00,,,0.00,LWC V1.12 B30,2013-02-25 06:40:00,
2013-02-24 23:45:00,36.6,26.3,29.53,North,-999,0.0,0.0,66,0.00,,,0.00,LWC V1.12 B30,2013-02-25 06:45:00,
2013-02-24 23:50:00,36.6,26.3,29.53,North,-999,0.0,0.0,66,0.00,,,0.00,LWC V1.12 B30,2013-02-25 06:50:00,
2013-02-24 23:55:00,36.6,26.3,29.53,North,-999,0.0,0.0,66,0.00,,,0.00,LWC V1.12 B30,2013-02-25 06:55:00,